Retour au catalogue

ACTS

ActifCommunicationsGEO
NORAD 22796·PAYLOAD·🇺🇸 United States

Lancé Sep 12, 1993 depuis Cape Canaveral Space Force Station

Loading…

TLE

FraisSource: Space-Track

Époque: Sep 14, 2026, 08:09 UTC

1 22796U 93058B   26257.34015830 -.00000115  00000-0  00000-0 0  9995
2 22796  14.5703 354.8793 0052445  84.4690 290.4809  1.00273287127808

Suivez ACTS en temps réel avec AllMySat

Download on the App Store